This is the latest recevied weather packets stored in our database for station/object KL1SF-7. If no packets are shown the sender has not sent any weather packets the latest 10 day(s).
| Time | Temp. | Humidity | Pressure | Rain* | Wind** | Luminosity | Snow |
|---|---|---|---|---|---|---|---|
| 1788599024 | 14.44° C | 60% | 1023.1 hPa | 0 mm | - | - | - |
| 1788598409 | 13.89° C | 61% | 1023 hPa | 0 mm | - | - | - |
| 1788597819 | 13.89° C | 63% | 1023 hPa | 0 mm | - | - | - |
| 1788597215 | 13.89° C | 64% | 1023.2 hPa | 0 mm | - | - | - |
| 1788596617 | 14.44° C | 63% | 1022.7 hPa | 0 mm | - | - | - |
| 1788596006 | 14.44° C | 63% | 1022.7 hPa | 0 mm | - | - | - |
| 1788595423 | 14.44° C | 62% | 1023.2 hPa | 0 mm | - | - | - |
| 1788594804 | 15° C | 61% | 1023.1 hPa | 0 mm | - | - | - |
| 1788594214 | 15° C | 60% | 1023.1 hPa | 0 mm | - | - | - |
| 1788593630 | 15° C | 60% | 1023.1 hPa | 0 mm | - | - | - |
| 1788593011 | 15° C | 60% | 1022.8 hPa | 0 mm | - | - | - |
| 1788592421 | 15.56° C | 59% | 1022.8 hPa | 0 mm | - | - | - |
| 1788591813 | 15.56° C | 58% | 1023 hPa | 0 mm | - | - | - |
| 1788591213 | 15.56° C | 57% | 1022.9 hPa | 0 mm | - | - | - |
| 1788590623 | 15.56° C | 57% | 1022.9 hPa | 0 mm | - | - | - |
| 1788590020 | 15.56° C | 57% | 1022.8 hPa | 0 mm | - | - | - |
| 1788589421 | 15.56° C | 57% | 1022.3 hPa | 0 mm | - | - | - |
| 1788588811 | 16.11° C | 56% | 1022.3 hPa | 0 mm | - | - | - |
| 1788588224 | 16.11° C | 55% | 1022.7 hPa | 0 mm | - | - | - |
| 1788587606 | 16.67° C | 54% | 1022.8 hPa | 0 mm | - | - | - |
| 1788587015 | 16.67° C | 53% | 1022.8 hPa | 0 mm | - | - | - |
| 1788586432 | 16.67° C | 52% | 1022.7 hPa | 0 mm | - | - | - |
| 1788585812 | 17.22° C | 51% | 1022.2 hPa | 0 mm | - | - | - |
| 1788585208 | 17.22° C | 51% | 1022.2 hPa | 0 mm | - | - | - |
| 1788584621 | 17.22° C | 50% | 1022.6 hPa | 0 mm | - | - | - |
* Rain since midnight (hover to see other rain measurements)
** Current wind speed in m/s (hover to see current wind gust speed)